Weather Roundup
Issued by NWS Springfield, MO

Home | Current Version | Previous Version | Text Only | Print | Product List | Glossary On
Versions: 1 2 3 4 5 6 7 8 9 10 11 12 13 14 15 16 17 18 19 20 21 22 23 24 25 26 27 28 29 30 31 32 33 34 35 36 37 38 39 40 41 42 43 44 45 46 47 48 49 50
000
NZUS99 KSGF 311407
HRRSGF

HOURLY WEATHER
NATIONAL WEATHER SERVICE SPRINGFIELD MO
800 AM CST SAT JAN 31 2015

......SGF CWA......

CITY           SKY/WX    TMP DP  RH WIND       PRES   REMARKS
SPRINGFIELD    CLOUDY    38  27  64 SE5       30.23F WCI  34
JOPLIN         CLOUDY    41  27  57 E8        30.24R
WEST PLAINS    CLOUDY    34  24  67 S3        30.33R
ROLLA          CLOUDY    35  23  61 S10       30.29R WCI  27
OSAGE BEACH    CLOUDY    37  21  52 SE3       30.30R
BRANSON        CLOUDY    37  25  60 SE14G20   30.26R WCI  29

......SURROUNDING SGF CWA......

CITY           SKY/WX    TMP DP  RH WIND       PRES   REMARKS
CHANUTE        CLOUDY    39  33  79 SE7       30.23R WCI  34
PARSONS        CLOUDY    40  31  70 SE3       30.24R
COFFEYVILLE    CLOUDY    39  31  72 SE7       30.22F WCI  34
EMPORIA        CLOUDY    37  35  92 SE8       30.19R WCI  31
GROVE OK       CLOUDY    41  30  65 CALM      30.24S
ROGERS AR      CLOUDY    41  24  51 E7        30.24F
SILOAM SPRINGS CLOUDY    39  23  52 SE6       30.24F WCI  35
HARRISON AR    CLOUDY    37  25  61 SE14      30.27F WCI  28
NEAR YELLVILLE CLOUDY    36  25  64 E8        30.27F WCI  29

......KANSAS AND MISSOURI......

CITY           SKY/WX    TMP DP  RH WIND       PRES   REMARKS
KANSAS CTY INT LGT RAIN  34  33  96 SE6       30.23F FOG     WCI  29
DOWNTOWN KC    LGT RAIN  36  33  89 E6        30.25F WCI  31
COLUMBIA       CLOUDY    33  22  63 S7        30.30R WCI  27
SEDALIA        LGT RAIN  35  30  82 S5        30.28F WCI  31
ST JOSEPH      LGT RAIN  34  34 100 CALM      30.25F FOG
ST LOUIS       CLOUDY    34  21  59 CALM      30.34S
SPIRIT OF STL  CLOUDY    30  25  81 CALM      30.33S
KIRKSVILLE     CLOUDY    31  22  69 SW3       30.26F
WICHITA        LGTSLEET  35  30  82 SE5       30.15F WCI  31
TOPEKA         CLOUDY    35  34  96 E7        30.21F FOG     WCI  29
OLATHE         LGT RAIN  35  34  96 E3        30.23S FOG

......TENNESSEE......

CITY           SKY/WX    TMP DP  RH WIND       PRES   REMARKS
MEMPHIS        CLOUDY    39  22  50 SE6       30.37S WCI  35
NASHVILLE      CLOUDY    29  24  82 CALM      30.40S

......ARKANSAS.......

CITY           SKY/WX    TMP DP  RH WIND       PRES   REMARKS
FAYETTEVILLE   CLOUDY    39  26  59 CALM      30.24F
FT SMITH       CLOUDY    41  27  57 E12       30.28S
LITTLE ROCK    CLOUDY    40  28  62 E6        30.35R

......OKLAHOMA.......

CITY           SKY/WX    TMP DP  RH WIND       PRES   REMARKS
TULSA          CLOUDY    44  30  57 S12       30.22S
PONCA CITY     LGT RAIN  41  33  73 S8        30.19S
MCALESTER      CLOUDY    44  27  51 SE6       30.25S
OKLAHOMA CITY  LGT RAIN  42  34  73 SE13      30.16F

......IOWA............

CITY           SKY/WX    TMP DP  RH WIND       PRES   REMARKS
DES MOINES     CLOUDY    36  29  75 SW7       30.19F WCI  30
QUAD CITIES    CLOUDY    30  22  72 SW9       30.23S WCI  22

......ILLINOIS........

CITY           SKY/WX    TMP DP  RH WIND       PRES   REMARKS
QUINCY         CLOUDY    31  21  66 SW7       30.29S WCI  24
CHICAGO        MOCLDY    25  19  78 SW7       30.23S WCI  17



USA.gov is the U.S. government's official web portal to all federal, state and local government web resources and services.